Tracking 32139 objects as of 18-Nov-2025
HD Live streaming from Space Station
objects crossing your sky now

STARLINK-31473

Track STARLINK-31473 now!
10-day predictions
STARLINK-31473 is classified as:


NORAD ID: 59339
Int'l Code: 2024-057V
Perigee: 489.6 km
Apogee: 490.7 km
Inclination: 43.0 °
Period: 94.3 minutes
Semi major axis: 6861 km
RCS: Unknown
Launch date: March 25, 2024
Source: United States (US)
Launch site: AIR FORCE EASTERN TEST RANGE (AFETR)
Your satellite tracking list
Your tracking list is empty




NASA's NSSDC Master Catalog

Two Line Element Set (TLE):
1 59339U 24057V   25321.44080620  .00001696  00000-0  71106-4 0  9995
2 59339  43.0006 100.8584 0000798 257.6853 102.3910 15.27594900 92672
Source of the keplerian elements: AFSPC